Location: Melbourne
(37.8170°S, 144.9670°E)
Time: 20:18:51
(UTC+10:00)

Aureole 2 Rocket - Visible Passes

Search period start: 21 August 2017 00:00
Search period end: 31 August 2017 00:00
Orbit: 328 x 561 km, 73.9° (Epoch: 20 August)

Date Brightness Start Highest point End Pass type
(mag) Time Alt. Az. Time Alt. Az. Time Alt. Az.
21 Aug 4.9 19:08:18 10° SSE 19:09:23 14° SSE 19:09:23 14° SSE visible
21 Aug 5.9 20:42:39 10° SW 20:43:00 12° SW 20:43:00 12° SW visible
22 Aug 4.4 20:04:49 10° SSW 20:07:03 30° SSW 20:07:03 30° SSW visible
23 Aug 2.9 19:27:16 10° S 19:31:18 54° ESE 19:31:18 54° ESE visible
24 Aug 3.8 18:50:01 10° S 18:53:42 28° ESE 18:55:49 18° ENE visible
24 Aug 5.2 20:25:29 10° SW 20:28:41 21° W 20:29:28 20° WNW visible
25 Aug 4.5 18:13:12 10° SSE 18:15:49 16° ESE 18:18:23 10° E visible
25 Aug 4.1 19:47:13 10° SSW 19:51:12 41° WNW 19:54:25 14° N visible
26 Aug 2.8 19:09:22 10° SSW 19:13:36 86° WNW 19:17:40 10° NNE visible
27 Aug 3.1 18:31:46 10° S 18:35:51 47° ESE 18:39:47 10° NE visible
27 Aug 6.1 20:08:45 10° WSW 20:10:31 12° W 20:12:15 10° WNW visible
28 Aug 5.3 19:29:38 10° SW 19:33:02 24° W 19:36:18 10° NNW visible
29 Aug 3.9 18:51:22 10° SSW 18:55:26 48° WNW 18:59:18 10° N visible
